Home   Weather   Phoenix   Past weeks
Flag for USA

Past Weather in Phoenix, Arizona, USA — Yesterday and Last 2 Weeks

Now
59 °F

Scattered clouds.


Feels Like: 56 °F
Forecast: 56 / 42 °F
Wind: 16 mph from Northwest

Location: Phoenix Sky Harbor International Airport

Current Time: Feb 16, 2019 at 6:49:41 pm

Latest Report: Feb 16, 2019 at 5:51 pm


Visibility: 10 mi

Pressure: 29.87 "Hg

Humidity: 29%

Dew Point: 27 °F

Location of PhoenixLocation

Past Weather in Phoenix — Graph

°F

Phoenix Temperature Yesterday

Maximum temperature yesterday: 67 °F (at 12:51 pm)
Minimum temperature yesterday: 54 °F (at 6:51 am)
Average temperature yesterday: 61 °F

High & Low Weather Summary for the Past Weeks

 TemperatureHumidityPressure
High73 °F (Feb 1, 4:51 pm)100% (Feb 3, 7:56 am)30.31 "Hg (Feb 3, 7:56 am)
Low37 °F (Feb 7, 5:51 am)12% (Feb 12, 2:51 pm)29.74 "Hg (Feb 5, 5:51 pm)
Average55 °F55%29.95 "Hg
* Reported Feb 1 4:51 pm — Feb 16 4:51 pm, Phoenix. Weather by CustomWeather, © 2019

Note: Actual official high and low records may vary slightly from our data, if they occured in-between our weather recording intervals... More about our weather records

Advertising

Phoenix Weather History for the Previous 24 Hours

Scroll right to see more
 ConditionsComfort  
Time TempWeatherWind HumidityBarometerVisibility
4:51 pm
Sat, Feb 16
61 °FScattered clouds.14 mph30%29.87 "Hg10 mi
3:51 pm62 °FScattered clouds.12 mph30%29.87 "Hg10 mi
2:51 pm61 °FPartly sunny.21 mph32%29.88 "Hg10 mi
1:51 pm61 °FPartly sunny.14 mph32%29.90 "Hg10 mi
12:51 pm62 °FBroken clouds.16 mph35%29.96 "Hg10 mi
11:51 am59 °FBroken clouds.13 mph44%29.96 "Hg10 mi
10:51 am59 °FBroken clouds.10 mph49%29.99 "Hg10 mi
9:51 am56 °FScattered clouds.10 mph55%29.97 "Hg10 mi
8:51 am52 °FBroken clouds.3 mph61%29.96 "Hg10 mi
7:51 am49 °FBroken clouds.5 mph71%29.94 "Hg10 mi
6:51 am52 °FPassing clouds.7 mph59%29.92 "Hg10 mi
5:51 am52 °FPassing clouds.7 mph59%29.90 "Hg10 mi
4:51 am54 °FPartly cloudy.13 mph53%29.90 "Hg10 mi
3:51 am54 °FOvercast.5 mph57%29.87 "Hg10 mi
2:51 am50 °FOvercast.8 mph52%29.90 "Hg10 mi
1:51 am50 °FOvercast.6 mph54%29.91 "Hg10 mi
11:51 pm
Fri, Feb 15
60 °FPartly cloudy.9 mph38%29.90 "Hg10 mi
9:51 pm60 °FPassing clouds.12 mph38%29.92 "Hg10 mi
8:51 pm62 °FOvercast.10 mph38%29.91 "Hg10 mi
7:51 pm62 °FOvercast.8 mph48%29.91 "Hg10 mi
6:51 pm63 °FMostly cloudy.7 mph47%29.90 "Hg10 mi
Weather by CustomWeather, © 2019

See weather overview